{"data":{"norad_id":63074,"epoch":"2026-09-21T00:15:31.768704Z","epoch_age_seconds":118151,"freshness":"FRESH","line1":"1 63074U 25035Y   26264.01078436  .00011788  00000+0  43714-3 0  9990","line2":"2 63074  43.0046 123.8205 0001972 261.5127  98.5501 15.27585996 89599","mean_motion":15.27585996,"eccentricity":0.0001972,"inclination_deg":43.0046,"raan_deg":123.8205,"arg_perigee_deg":261.5127,"mean_anomaly_deg":98.5501,"bstar":0.00043714,"rev_number":8959,"period_min":94.26637870278,"perigee_km":481.67811955975,"apogee_km":484.38416427492,"semimajor_km":6861.1681419173,"source":"CELESTRAK","updated_at":"2026-09-22T09:00:49.756164Z"}}